CST,Max TemperatureF,Mean TemperatureF,Min TemperatureF,Max Dew PointF,MeanDew PointF,Min DewpointF,Max Humidity, Mean Humidity, Min Humidity, Max Sea Level PressureIn, Mean Sea Level PressureIn, Min Sea Level PressureIn, Max VisibilityMiles, Mean VisibilityMiles, Min VisibilityMiles, Max Wind SpeedMPH, Mean Wind SpeedMPH, Max Gust SpeedMPH,PrecipitationIn, CloudCover, Events, WindDirDegrees
2013-2-1,30,12,-7,23,5,-11,81,69,56,30.49,30.24,30.04,10,10,10,18,9,23,0.00,5,,180
2013-2-2,40,30,19,31,20,14,92,78,64,30.23,30.13,30.02,10,9,2,33,11,44,0.02,7,Snow,317
2013-2-3,50,32,14,30,22,10,84,63,42,30.24,30.03,29.78,10,10,10,22,11,29,0.00,1,,250
2013-2-4,33,26,19,28,18,12,92,80,68,30.08,29.96,29.80,10,10,10,20,9,22,0.00,7,,293
2013-2-5,46,34,21,29,25,19,96,71,45,30.10,29.98,29.83,10,9,5,25,9,30,0.00,1,,335
2013-2-6,48,36,24,35,30,24,92,76,48,30.09,29.95,29.85,10,10,7,23,9,30,T,3,Rain,145
2013-2-7,36,32,27,32,25,21,92,79,62,30.30,30.13,29.94,10,9,5,22,13,25,0.00,7,,351
2013-2-8,34,29,23,25,22,19,93,80,62,30.37,30.27,30.13,10,10,9,20,10,25,0.00,5,,134
2013-2-9,50,37,23,33,29,21,93,76,52,30.16,29.93,29.69,10,8,5,23,15,28,T,6,,147
2013-2-10,44,36,28,40,33,23,100,89,74,29.70,29.38,29.23,10,7,2,33,19,44,0.16,8,Rain-Snow-Thunderstorm,200
2013-2-11,29,25,21,22,20,18,81,75,69,30.16,30.06,29.76,10,10,5,32,16,47,T,7,Snow,310
2013-2-12,45,30,14,25,20,12,92,67,41,30.18,30.01,29.92,10,10,10,16,6,20,0.00,0,,273
2013-2-13,52,36,19,31,26,18,96,69,41,29.93,29.80,29.70,10,10,10,23,7,31,0.00,2,,268
2013-2-14,41,30,18,30,26,10,92,73,54,30.35,30.03,29.79,10,8,1,26,15,35,0.02,6,Snow,329
2013-2-15,29,19,9,22,16,7,92,78,63,30.42,30.36,30.31,10,8,2,17,7,22,0.02,6,Snow,339
2013-2-16,34,21,7,25,18,4,92,81,69,30.38,30.16,30.02,10,10,10,14,7,16,0.00,4,,168
2013-2-17,49,33,16,32,25,14,89,68,41,30.05,29.81,29.60,10,10,10,23,12,28,0.00,0,,149
2013-2-18,42,27,11,32,17,1,85,68,49,30.11,29.85,29.59,10,10,8,40,26,47,T,5,Snow,327
2013-2-19,20,12,4,2,-1,-3,76,61,45,30.47,30.31,30.09,10,10,9,35,20,43,0.00,3,,325
2013-2-20,25,13,0,7,-1,-7,79,58,36,30.50,30.40,30.29,10,10,10,15,8,18,0.00,5,,90
2013-2-21,26,23,19,19,15,8,92,69,46,30.31,30.06,29.92,10,4,0,22,13,29,0.62,8,Fog-Snow,71
2013-2-22,23,15,7,18,14,6,92,82,71,30.06,29.97,29.90,10,6,1,18,11,21,0.17,6,Snow,327
2013-2-23,24,10,-4,17,5,-6,100,87,73,30.04,29.93,29.85,9,5,0,12,6,13,0.00,1,Fog,127
2013-2-24,26,19,11,21,16,8,96,88,80,30.15,30.01,29.87,5,3,0,10,5,12,0.00,6,Fog,19
2013-2-25,32,27,21,25,22,19,100,89,78,30.17,30.09,29.98,10,3,0,14,5,16,0.00,7,Fog,6
2013-2-26,33,27,21,27,23,19,100,88,75,30.02,29.94,29.85,8,4,2,21,13,24,0.00,8,,7
2013-2-27,33,26,19,24,20,15,92,77,61,30.15,30.04,29.94,10,9,6,32,21,40,T,3,,330
2013-2-28,28,26,24,23,20,18,84,79,74,30.29,30.24,30.14,10,10,10,23,15,28,0.00,8,,329